Presure
129 141 128 140 144 136 131 134 154 138 127 144 142 146 165 159 160 164 157 163 154 127 137 122 134 83 81 78 66 73 76 81 69 72 79 80 95 81 89 92 78 93 84
136 128 133 161 124 127 125 124 123 130 135 152 138 153 150 150 123 115 116 163 162 164 130 108 128 155 104 117 80 83 82 102 85 74 123 82 78 96 87 82 88 86 92
126 134 143 130 137 130 141 140 139 135 145 152 147 162 141 143 148 159 147 126 162 109 123 149 155 166 119 142 121 127 132 96 134 82 115 83 77 101 101 95 97 90 91
104 191 130 145 151 167 171 143 139 144 144 142 150 144 154 164 158 169 132 129 157 101 101 129 132 118 102 111 122 128 78 129 78 104 114 94 76 100 96 98 98 95 91
85 90 89 105 126 192 135 171 136 146 146 141 151 154 155 151 117 152 158 153 106 109 122 103 94 108 112 100 100 120 114 127 127 114 127 90 101 103 102 100 102 103 97
94 90 88 89 84 94 104 135 163 171 178 177 150 172 136 172 155 165 170 132 167 108 122 114 109 109 102 97 99 97 115 120 125 131 118 114 115 111 106 107 108 102 100
134 101 96 94 99 101 93 102 186 164 176 186 169 125 157 157 135 179 164 176 127 157 148 105 107 101 108 108 110 115 101 102 109 117 120 118 115 112 116 109 107 138 102
97 94 105 96 95 177 144 126 97 99 105 125 184 187 184 162 146 168 144 185 161 155 135 121 174 104 132 120 121 113 108 125 139 103 100 104 107 103 97 99 99 107 102
102 103 101 169 128 175 164 168 105 91 93 118 179 171 176 148 181 189 178 169 196 186 148 146 153 137 174 128 108 112 120 115 104 120 97 98 100 116 120 99 98 100 98
102 104 81 178 182 179 176 176 172 183 177 96 98 161 131 123 165 138 193 200 186 186 177 192 188 205 189 141 189 182 116 111 108 158 133 103 111 109 108 105 113 115 171
168 178 176 178 177 118 173 105 177 123 109 176 176 173 154 165 162 149 176 174 190 193 194 148 192 180 181 175 191 142 133 181 151 128 115 115 115 115 135 170 168 104 149
185 173 173 172 175 203 181 177 177 178 141 180 146 91 175 178 122 173 110 116 151 193 155 191 198 174 203 188 175 204 197 187 191 133 111 155 178 131 110 150 152 176 168
169 200 215 200 176 192 212 177 176 177 175 177 181 179 86 84 87 88 98 84 91 79 83 178 185 185 135 191 185 193 200 198 191 156 194 184 188 142 188 187 172 168 180
195 169 223 169 172 171 175 173 174 174 78 172 175 178 165 169 180 97 179 93 111 167 94 94 86 84 87 170 89 90 191 189 174 176 184 194 188 201 189 189 188 183 105
173 163 182 193 196 192 195 194 198 204 191 181 174 171 172 175 179 181 124 177 175 178 184 168 151 166 135 150 128 97 113 94 96 96 176 154 168 166 167 149 193 148 187
205 205 206 207 207 208 208 204 203 169 155 162 161 166 169 180 188 201 193 182 183 171 133 155 153 180 164 194 144 171 163 197 149 125 147 96 166 161 89 187 162 152 160
160 164 212 175 228 220 243 216 215 237 155 168 235 161 213 205 221 204 203 173 181 173 176 198 147 177 182 175 181 178 176 190 165 189 174 96 170 160 164 157 104 143 95
163 161 157 153 154 229 229 238 237 162 178 230 169 222 170 157 217 223 208 200 194 185 174 166 188 166 184 136 143 151 146 184 159 199 167 174 161 172 170 169 153 158 148
224 200 157 154 159 161 229 233 236 221 235 239 230 229 223 221 233 227 195 192 205 179 158 194 182 175 161 162 168 173 184 180 162 175 181 180 148 163 177 191 198 189 201
224 224 227 230 212 217 245 160 235 240 180 235 235 173 219 226 216 215 220 225 222 166 179 179 164 164 162 148 178 136 135 180 193 165 163 135 147 188 201 132 185 147 191
264 269 275 276 279 277 236 164 142 249 143 219 212 236 231 230 211 218 227 236 232 225 193 164 163 140 173 180 171 194 145 126 177 192 166 198 137 173 194 168 166 174 204
265 286 261 263 280 276 301 311 190 160 145 143 254 163 143 141 148 200 162 164 216 211 201 194 171 173 163 162 168 167 177 176 179 192 147 183 162 181 188 180 171 180 180
282 282 277 274 271 309 333 363 203 159 161 192 186 225 196 175 147 210 167 170 138 132 225 223 148 142 143 186 190 188 184 187 186 193 118 176 209 184 165 185 177 185 177
276 277 272 277 292 303 308 153 151 157 357 302 282 277 137 173 150 220 195 157 159 210 188 133 140 142 139 172 174 170 149 136 121 132 142 188 177 181 189 188 186 183 198
276 266 274 278 290 319 317 314 311 348 344 336 334 339 317 309 237 244 209 188 220 199 158 139 139 153 203 133 142 160 179 116 185 187 185 191 180 88 198 174 177 180 184
268 263 273 282 308 299 304 352 364 344 346 210 155 157 336 319 334 298 238 233 225 223 214 170 161 151 135 179 128 145 141 176 128 165 143 154 181 182 186 183 181 182 188
Wind_Speed
32 36 28 30 33 29 29 29 35 30 29 31 30 30 34 31 30 30 30 29 32 24 23 21 22 23 21 19 3 7 10 14 3 5 9 8 14 10 13 15 10 16 15
37 29 31 45 28 29 30 30 30 33 32 36 32 35 33 30 26 22 23 31 31 30 27 20 22 29 22 18 21 20 18 17 16 10 17 11 10 16 16 15 18 18 19
33 35 43 31 34 33 36 34 35 34 34 38 36 40 34 33 33 34 34 26 33 22 24 31 28 31 22 25 21 19 18 20 18 18 19 16 13 19 20 20 21 21 22
27 50 33 45 50 46 46 39 36 40 42 36 39 36 39 42 40 43 30 31 34 23 24 30 28 25 26 24 23 25 18 19 18 18 21 22 13 22 21 22 24 24 23
26 24 21 25 31 47 40 49 40 42 42 39 43 44 42 40 30 42 42 39 26 27 30 27 24 26 27 27 25 26 25 24 22 26 24 20 26 27 26 25 27 28 26
34 30 24 26 20 25 24 41 48 53 52 51 47 51 42 49 44 46 48 35 45 29 32 32 31 31 31 30 31 29 28 27 27 27 29 29 31 32 30 31 31 30 29
45 38 34 33 33 33 27 29 50 49 52 50 47 37 49 48 44 52 48 51 35 45 40 34 33 32 33 34 34 34 32 31 31 30 31 32 34 33 34 35 34 35 33
43 39 43 36 34 54 46 42 30 29 31 38 50 50 50 49 46 53 46 53 47 43 40 37 46 35 38 36 37 35 34 36 36 33 32 32 33 33 32 33 33 36 35
47 47 45 55 42 56 54 56 35 30 30 38 46 51 50 45 54 55 52 48 55 55 42 40 45 42 48 40 38 39 39 37 36 37 34 35 35 39 40 36 36 37 35
51 50 23 57 57 58 59 60 59 55 56 34 36 49 44 41 56 40 52 51 52 54 50 49 47 45 48 45 47 47 42 40 38 44 43 38 40 40 39 39 43 44 44
58 60 61 59 60 39 60 35 62 45 34 60 60 58 51 53 51 47 56 51 48 51 51 47 47 45 47 47 45 42 46 47 46 46 43 43 44 44 44 46 45 41 44
61 62 61 61 62 62 64 64 64 64 49 63 50 30 56 55 43 56 42 43 46 53 45 50 46 47 43 43 48 41 44 44 44 47 42 47 45 46 43 46 46 47 50
59 64 64 65 62 64 65 63 64 65 65 64 63 62 31 29 32 34 36 29 34 25 27 52 52 50 36 41 45 41 41 41 41 50 46 46 46 45 49 48 50 51 50
64 59 64 62 61 62 63 62 63 64 29 64 64 62 55 56 60 40 60 43 39 57 37 37 33 32 34 49 34 36 42 42 48 44 45 47 46 47 48 49 49 52 40
60 59 65 69 69 68 70 71 70 70 68 68 63 62 62 62 63 63 46 62 62 60 58 52 49 55 49 47 44 46 44 42 44 42 49 46 46 48 48 51 52 47 53
72 73 74 74 75 75 75 75 74 63 58 60 61 63 65 69 71 71 69 64 58 64 43 54 55 58 57 54 53 57 50 48 54 49 50 45 52 50 42 51 52 51 51
60 60 77 62 77 77 75 77 77 75 60 63 76 63 76 75 77 76 74 63 63 73 58 64 55 62 65 63 60 61 60 51 59 58 56 44 56 53 55 54 48 54 49
63 62 60 60 60 77 77 77 78 62 65 77 64 78 66 60 74 79 77 75 70 78 64 63 68 72 73 48 50 50 52 56 52 53 54 59 55 57 58 59 52 56 53
77 73 62 61 62 63 80 79 80 80 80 80 79 80 81 78 80 79 74 74 80 73 64 82 68 76 60 58 62 60 64 60 57 57 59 64 50 56 58 63 62 62 61
79 80 80 81 76 76 82 63 83 83 65 82 82 65 82 82 80 79 81 81 82 69 72 76 71 70 68 59 77 56 52 72 69 63 56 56 55 66 67 53 64 54 62
74 74 74 78 82 86 84 65 56 87 55 82 81 85 84 86 81 83 82 84 83 84 80 73 73 57 83 79 78 83 50 55 72 75 62 72 56 63 65 57 60 62 65
71 63 75 77 74 81 74 77 67 67 61 56 93 65 56 54 55 78 66 65 79 78 78 80 80 82 71 68 80 75 80 78 81 79 57 75 57 72 69 69 64 65 66
57 59 64 69 72 58 57 50 66 70 70 73 75 90 77 72 59 86 67 70 59 57 84 85 62 59 61 88 88 92 89 91 91 86 55 70 80 80 62 75 68 69 69
55 56 64 62 60 61 54 68 67 69 61 85 84 87 58 72 62 93 83 66 66 89 78 61 65 64 60 76 87 85 69 53 61 47 52 91 78 81 82 79 72 73 80
54 59 58 59 59 57 57 58 61 60 63 69 75 72 96 105 100 102 90 80 95 90 70 64 67 71 93 52 60 73 93 63 98 98 92 95 90 37 96 73 79 72 78
53 58 57 56 54 56 57 40 37 49 57 65 65 66 79 92 93 109 103 101 100 98 95 75 75 70 64 80 49 66 63 92 50 83 68 69 99 92 91 86 82 83 90
Wind_Direction
237 245 234 243 246 240 242 247 250 251 255 253 255 254 255 255 254 255 249 253 247 240 244 254 254 207 208 212 102 221 228 234 242 273 251 256 289 288 295 295 306 299 310
247 236 241 249 237 239 243 246 249 251 252 254 253 255 256 254 245 244 243 255 255 256 245 237 254 250 244 252 224 229 236 247 244 265 267 279 277 285 290 296 297 304 295
242 248 252 240 251 238 249 243 243 243 252 255 253 254 255 255 254 256 251 242 257 235 244 252 254 253 252 256 257 259 262 246 267 250 266 265 277 281 272 282 283 294 297
261 245 245 254 252 253 250 249 241 252 247 248 254 251 260 256 258 260 248 245 254 234 236 248 249 246 246 251 258 258 249 259 258 259 252 270 276 273 278 280 283 287 295
274 272 270 259 249 251 249 248 239 254 255 246 257 259 258 257 249 258 256 256 240 243 248 243 240 247 249 252 253 256 258 256 255 256 258 264 276 276 277 280 279 280 289
263 264 266 267 262 264 265 245 247 251 250 253 255 253 246 253 255 257 258 249 258 245 248 252 248 248 250 255 257 259 258 257 257 258 257 260 260 266 275 276 276 284 290
252 262 262 264 265 263 255 254 247 252 251 250 249 257 260 259 253 254 256 258 249 257 253 249 248 248 251 254 255 258 263 264 262 259 256 257 262 269 269 272 278 274 286
262 261 260 258 258 247 251 254 247 246 250 252 249 249 250 256 256 257 253 258 258 253 256 252 261 251 255 256 257 259 260 259 258 266 270 270 270 275 283 281 283 280 285
258 261 263 244 248 246 249 250 249 252 252 253 245 253 253 252 256 255 256 258 259 256 255 255 259 256 263 257 255 257 261 259 262 259 272 275 277 267 267 283 286 286 289
262 261 247 243 242 243 246 248 250 246 247 251 253 253 251 254 259 250 257 249 258 259 258 262 261 267 266 256 261 261 261 262 262 265 263 271 268 271 276 281 275 277 273
248 244 245 244 244 246 247 245 247 251 249 250 249 249 253 252 255 253 261 258 257 259 259 255 262 261 264 263 260 263 265 265 266 262 270 271 273 274 274 270 272 281 276
243 247 249 248 247 243 243 246 247 247 250 251 253 254 250 251 253 256 255 255 254 258 256 261 262 260 267 267 261 261 262 260 261 266 274 267 265 272 279 274 275 269 273
245 247 245 246 249 245 244 248 250 248 250 252 251 253 249 250 254 255 257 250 251 240 250 262 261 260 266 260 258 263 265 266 266 267 266 265 269 274 270 269 270 272 272
246 248 247 252 251 250 250 250 251 251 257 253 254 252 253 252 253 255 254 255 253 259 255 256 259 261 269 260 269 268 258 257 255 261 267 267 268 267 270 270 270 272 284
246 248 249 250 249 248 248 248 246 245 246 247 252 254 254 253 252 253 255 252 256 260 260 259 259 261 261 261 264 270 263 265 267 268 266 267 260 263 266 274 271 277 272
249 249 248 247 247 247 246 247 248 251 250 247 250 251 252 252 250 246 248 250 253 254 254 258 258 259 260 253 261 257 259 260 264 265 259 271 261 263 283 269 270 275 276
250 249 251 250 252 249 250 249 248 247 253 248 245 250 244 242 240 243 244 250 244 255 256 252 263 257 255 259 255 258 258 256 261 255 256 269 262 266 268 270 282 274 287
251 250 249 250 250 254 253 250 250 253 252 245 253 243 252 257 242 237 239 241 236 244 256 259 246 261 256 260 260 267 264 255 263 260 263 260 270 267 266 266 273 273 276
256 255 251 251 253 253 255 253 251 251 249 246 244 243 243 242 242 239 244 243 236 245 262 245 250 253 263 262 262 258 258 255 268 258 257 257 267 268 268 263 262 267 269
258 258 258 257 256 255 255 253 254 252 251 249 246 252 245 243 241 241 240 237 235 255 248 251 259 264 258 263 262 265 263 259 256 262 262 270 269 264 266 270 270 273 272
266 265 264 264 264 262 256 253 252 252 251 248 248 247 245 243 243 242 240 240 237 235 243 261 264 263 261 260 267 253 259 269 268 257 260 259 267 273 268 273 274 271 272
267 268 265 265 265 264 262 259 252 251 252 250 248 249 252 252 253 246 254 250 242 241 240 243 256 256 257 256 266 267 268 271 270 261 260 263 270 274 269 270 275 273 276
276 273 268 267 270 278 280 279 254 252 251 251 251 248 248 248 251 241 247 248 254 259 239 235 262 267 269 249 248 252 259 259 266 262 268 261 258 271 274 270 273 273 275
279 277 271 274 283 283 279 251 251 251 261 250 247 245 253 249 251 242 244 251 251 242 246 266 268 269 269 251 260 263 251 262 267 263 266 267 273 274 271 273 271 272 272
283 276 281 284 287 289 284 276 267 271 259 253 250 249 241 241 242 241 245 246 240 242 252 261 265 262 239 269 272 265 259 255 258 259 262 259 269 278 271 276 278 277 279
282 281 288 292 295 292 291 302 304 274 265 254 252 252 245 242 240 239 240 240 241 241 240 250 254 260 271 247 265 269 274 255 265 264 266 266 268 272 271 275 277 278 278